Location: Girdwood
(60.9430°N, 149.1660°W)
Time: 18:17:18
(UTC-08:00)

Iridium 86 - Visible Passes

Search period start: 22 September 2014 00:00
Search period end: 02 October 2014 00:00
Orbit: 776 x 779 km, 86.4° (Epoch: 22 September)

Date Brightness Start Highest point End Pass type
(mag) Time Alt. Az. Time Alt. Az. Time Alt. Az.
22 Sep 8.3 02:59:07 10° E 03:01:07 12° ENE 03:03:07 10° NE visible
22 Sep 6.4 04:35:47 11° SSE 04:40:39 47° E 04:45:39 10° NNE visible
22 Sep 6.0 06:16:34 10° SW 06:21:30 42° WNW 06:26:29 10° N visible
23 Sep 7.1 04:02:51 11° SE 04:07:19 32° E 04:11:54 10° NNE visible
23 Sep 5.6 05:43:22 14° SSW 05:47:48 62° WNW 05:53:00 10° N visible
24 Sep 7.6 03:30:08 10° ESE 03:34:05 22° ENE 03:38:02 10° NNE visible
24 Sep 5.5 05:10:24 19° S 05:14:12 89° E 05:19:27 10° N visible
24 Sep 6.7 06:51:28 10° WSW 06:55:40 24° WNW 06:59:53 10° N visible
25 Sep 8.1 02:57:59 10° ESE 03:00:56 15° ENE 03:03:54 10° NNE visible
25 Sep 6.0 04:37:24 22° SSE 04:40:41 60° E 04:45:50 10° N visible
25 Sep 6.3 06:17:54 14° SW 06:21:47 34° WNW 06:26:32 10° N visible
26 Sep 8.3 02:27:04 10° ENE 02:27:54 10° ENE 02:28:44 10° NE visible
26 Sep 6.6 04:04:22 22° SE 04:07:17 40° E 04:12:09 10° NNE visible
26 Sep 5.8 05:44:52 22° SW 05:48:00 49° WNW 05:53:05 10° N visible
27 Sep 7.3 03:31:19 18° ESE 03:34:00 28° ENE 03:38:22 10° NNE visible
27 Sep 5.4 05:11:49 31° SSW 05:14:20 73° W 05:19:35 10° N visible
27 Sep 7.0 06:52:19 10° WSW 06:56:02 20° WNW 06:59:49 10° N visible
28 Sep 7.8 02:58:15 14° ESE 03:00:48 19° ENE 03:04:24 10° NNE visible
28 Sep 5.6 04:38:44 38° S 04:40:46 77° E 04:46:00 10° N visible
28 Sep 6.6 06:19:14 17° WSW 06:22:05 27° WNW 06:26:33 10° N visible
29 Sep 8.1 02:25:19 10° E 02:27:42 13° ENE 02:30:04 10° NE visible
29 Sep 6.2 04:05:38 37° SE 04:07:18 51° E 04:12:22 10° NNE visible
29 Sep 6.1 05:46:08 27° WSW 05:48:14 39° WNW 05:53:09 10° N visible
30 Sep 6.8 03:32:31 30° ESE 03:33:56 35° E 03:38:38 10° NNE visible
30 Sep 5.6 05:13:00 42° SW 05:14:30 57° WNW 05:19:40 10° N visible
30 Sep 7.2 06:53:30 11° W 06:56:27 16° NW 06:59:41 10° NNW visible
01 Oct 7.3 02:59:23 22° E 03:00:41 24° ENE 03:04:47 10° NNE visible
01 Oct 5.4 04:39:52 60° SSW 04:40:52 85° W 04:46:08 10° N visible
01 Oct 6.8 06:20:22 18° W 06:22:25 22° WNW 06:26:30 10° N visible
